Location: Hac?musa Deresi
(39.1694°N, 32.2508°E)
Time: 22:37:15
(UTC+00:00)

COSMOS 2455 - Pass Details

Date: 22 April 2026
Orbit: 901 x 907 km, 67.1° (Epoch: 9 May)

Event Time Altitude Azimuth Distance (km) Brightness Sun altitude
Rises 19:50:43 0° 334° (NNW) 3,540 7.1 -31.5°
Reaches altitude 10° 19:53:15 10° 337° (NNW) 2,595 6.1 -31.7°
Enters shadow 19:58:10 56° 9° (N) 1,073 3.3 -32.3°
